SALT Weather Reports


Display with metric or nautical units.
time (UTC)temp
F
wind
direction
speed
MPH
gust
MPH
rain 1hr
in
rain 24hr
in
rain mn
in
humidity
%
barometer
mb
20181016190507 52 348 1.0 0.0 0.00 0.00 0.00 34 1023.7
20181016183459 51 328 1.0 0.0 0.00 0.00 0.00 35 1023.8
20181016181454 50 320 1.0 0.0 0.00 0.00 0.00 35 1024.0
20181016180449 50 327 1.0 0.0 0.00 0.00 0.00 34 1024.0
20181016175447 49 328 1.0 0.0 0.00 0.00 0.00 35 1024.0
20181016174444 49 329 1.0 0.0 0.00 0.00 0.00 35 1024.0
20181016173442 49 316 1.0 0.0 0.00 0.00 0.00 35 1024.1
20181016172439 48 343 1.0 0.0 0.00 0.00 0.00 35 1024.2
20181016171440 48 335 1.0 0.0 0.00 0.00 0.00 34 1024.3
20181016170430 48 327 1.0 0.0 0.00 0.00 0.00 34 1024.3
20181016165427 48 354 1.0 0.0 0.00 0.00 0.00 34 1024.3
20181016164425 48 309 1.0 0.0 0.00 0.00 0.00 33 1024.3
20181016163422 48 326 1.0 0.0 0.00 0.00 0.00 34 1024.2
20181016162420 48 337 1.0 0.0 0.00 0.00 0.00 36 1024.1
20181016161417 47 341 1.0 0.0 0.00 0.00 0.00 36 1024.1
20181016160412 47 328 1.0 0.0 0.00 0.00 0.00 36 1024.2
20181016155410 46 331 1.0 0.0 0.00 0.00 0.00 36 1024.4
20181016154408 46 330 1.0 0.0 0.00 0.00 0.00 36 1024.4
20181016153404 45 333 1.0 0.0 0.00 0.00 0.00 37 1024.4
20181016152402 45 354 1.0 0.0 0.00 0.00 0.00 37 1024.4
20181016151359 45 316 1.0 0.0 0.00 0.00 0.00 37 1024.5
20181016150354 44 354 1.0 0.0 0.00 0.00 0.00 37 1024.5
20181016145355 44 327 1.0 0.0 0.00 0.00 0.00 38 1024.5
20181016144349 43 319 1.0 0.0 0.00 0.00 0.00 38 1024.4
20181016143347 43 349 1.0 0.0 0.00 0.00 0.00 38 1024.4
20181016142344 42 325 1.0 0.0 0.00 0.00 0.00 39 1024.4
20181016141342 42 310 1.0 0.0 0.00 0.00 0.00 39 1024.4
20181016140337 42 321 1.0 0.0 0.00 0.00 0.00 40 1024.3
20181016135334 41 335 1.0 0.0 0.00 0.00 0.00 40 1024.3
20181016134332 42 339 1.0 0.0 0.00 0.00 0.00 40 1024.3
20181016133329 42 301 1.0 0.0 0.00 0.00 0.00 40 1024.3
20181016132326 40 311 1.0 0.0 0.00 0.00 0.00 41 1024.3
20181016131324 40 330 1.0 0.0 0.00 0.00 0.00 42 1024.5
20181016130319 40 331 1.0 0.0 0.00 0.00 0.00 42 1024.5
20181016125316 41 344 1.0 0.0 0.00 0.00 0.00 41 1024.5
20181016124314 41 348 1.0 0.0 0.00 0.00 0.00 40 1024.6
20181016123311 41 328 1.0 0.0 0.00 0.00 0.00 41 1024.6
20181016122308 41 343 1.0 0.0 0.00 0.00 0.00 40 1024.5
20181016121306 42 347 1.0 0.0 0.00 0.00 0.00 39 1024.6
20181016120301 42 320 1.0 0.0 0.00 0.00 0.00 40 1024.6
20181016115258 42 318 1.0 0.0 0.00 0.00 0.00 40 1024.7
20181016114256 41 299 1.0 0.0 0.00 0.00 0.00 40 1024.7
20181016113253 42 354 1.0 0.0 0.00 0.00 0.00 39 1024.7
20181016112251 42 322 1.0 0.0 0.00 0.00 0.00 40 1024.7
20181016111248 42 330 1.0 0.0 0.00 0.00 0.00 40 1024.8
20181016110243 41 326 1.0 0.0 0.00 0.00 0.00 42 1024.8
20181016105241 41 8 1.0 0.0 0.00 0.00 0.00 42 1024.8
20181016104238 41 327 1.0 0.0 0.00 0.00 0.00 45 1024.8
20181016103235 39 343 1.0 0.0 0.00 0.00 0.00 48 1024.8
20181016102233 39 310 1.0 0.0 0.00 0.00 0.00 51 1024.8
20181016101231 38 320 1.0 0.0 0.00 0.00 0.00 53 1024.9
20181016100225 38 316 1.0 0.0 0.00 0.00 0.00 56 1024.8
20181016095222 38 329 1.0 0.0 0.00 0.00 0.00 57 1025.0
20181016094220 38 322 1.0 0.0 0.00 0.00 0.00 57 1025.1
20181016093217 38 330 1.0 0.0 0.00 0.00 0.00 58 1025.2
20181016092215 38 334 1.0 0.0 0.00 0.00 0.00 58 1025.3
20181016091212 38 334 1.0 0.0 0.00 0.00 0.00 57 1025.3
20181016090207 38 328 1.0 0.0 0.00 0.00 0.00 58 1025.5
20181016085204 38 333 1.0 0.0 0.00 0.00 0.00 58 1025.4
20181016084202 39 343 1.0 0.0 0.00 0.00 0.00 56 1025.4
20181016083159 39 322 2.0 0.0 0.00 0.00 0.00 56 1025.4
20181016082156 39 309 1.0 0.0 0.00 0.00 0.00 57 1025.3
20181016080149 39 326 1.0 0.0 0.00 0.00 0.00 57 1025.2
20181016075146 39 319 1.0 0.0 0.00 0.00 0.00 57 1025.3
20181016074144 39 322 2.0 0.0 0.00 0.00 0.00 57 1025.3
20181016073141 39 325 1.0 0.0 0.00 0.00 0.00 57 1025.3
20181016072139 39 330 1.0 0.0 0.00 0.00 0.00 58 1025.1
20181016071136 39 341 1.0 0.0 0.00 0.00 0.00 57 1025.2
20181016070131 39 323 1.0 0.0 0.00 0.00 0.00 57 1025.1
20181016065129 40 326 1.0 0.0 0.00 0.00 0.00 56 1025.1
20181016064127 40 326 1.0 0.0 0.00 0.00 0.00 56 1025.2
20181016063123 40 314 1.0 0.0 0.00 0.00 0.00 56 1025.2
20181016062121 40 301 1.0 0.0 0.00 0.00 0.00 56 1025.2
20181016061119 40 326 1.0 0.0 0.00 0.00 0.00 55 1025.2
20181016060114 40 334 1.0 0.0 0.00 0.00 0.00 57 1025.3
20181016055111 39 320 1.0 0.0 0.00 0.00 0.00 57 1025.4
20181016054108 39 327 1.0 0.0 0.00 0.00 0.00 56 1025.5
20181016053106 40 308 2.0 0.0 0.00 0.00 0.00 56 1025.5
20181016052103 39 314 2.0 0.0 0.00 0.00 0.00 57 1025.6
20181016051100 39 320 2.0 0.0 0.00 0.00 0.00 58 1025.6
20181016050056 40 305 2.0 0.0 0.00 0.00 0.00 57 1025.6
20181016044050 39 330 1.0 0.0 0.00 0.00 0.00 59 1025.5
20181016043049 39 326 1.0 0.0 0.00 0.00 0.00 60 1025.3
20181016042045 38 314 1.0 0.0 0.00 0.00 0.00 60 1025.4
20181016041043 38 299 1.0 0.0 0.00 0.00 0.00 61 1025.5
20181016035035 39 330 0.0 0.0 0.00 0.00 0.00 60 1025.5
20181016033030 39 332 1.0 0.0 0.00 0.00 0.00 59 1025.3
20181016032029 39 327 1.0 0.0 0.00 0.00 0.00 59 1025.4
20181016031026 39 335 1.0 0.0 0.00 0.00 0.00 59 1025.5
20181016030020 39 328 1.0 0.0 0.00 0.00 0.00 59 1025.6
20181016025017 40 334 1.0 0.0 0.00 0.00 0.00 59 1025.6
20181016024015 40 322 1.0 0.0 0.00 0.00 0.00 58 1025.7
20181016023013 40 354 1.0 0.0 0.00 0.00 0.00 58 1025.9
20181016022010 40 335 1.0 0.0 0.00 0.00 0.00 57 1025.8
20181016021007 40 328 1.0 0.0 0.00 0.00 0.00 58 1025.9
20181016020003 40 325 1.0 0.0 0.00 0.00 0.00 59 1025.9
20181016015000 40 326 1.0 0.0 0.00 0.00 0.00 60 1025.9
20181016013957 40 316 1.0 0.0 0.00 0.00 0.00 60 1025.9
20181016012955 40 349 1.0 0.0 0.00 0.00 0.00 61 1025.9
20181016011952 39 307 1.0 0.0 0.00 0.00 0.00 61 1025.9
20181016010949 40 303 1.0 0.0 0.00 0.00 0.00 62 1025.9
20181016005946 40 300 1.0 0.0 0.00 0.00 0.00 61 1026.1
20181016003939 41 312 1.0 0.0 0.00 0.00 0.00 59 1026.2
20181016002937 42 303 1.0 0.0 0.00 0.00 0.00 58 1026.1
20181016001935 43 300 1.0 0.0 0.00 0.00 0.00 56 1026.2
20181016000932 44 326 1.0 0.0 0.00 0.00 0.00 54 1026.2
20181015235926 44 295 1.0 0.0 0.00 0.00 0.00 52 1026.2
20181015234924 47 291 2.0 0.0 0.00 0.00 0.00 48 1026.2
20181015233921 47 309 1.0 0.0 0.00 0.00 0.00 46 1026.2
20181015232919 47 335 1.0 0.0 0.00 0.00 0.00 46 1026.4
20181015231916 47 322 2.0 0.0 0.00 0.00 0.00 46 1026.6
20181015230913 47 317 1.0 0.0 0.00 0.00 0.00 46 1026.7
20181015225908 47 359 2.0 0.0 0.00 0.00 0.00 46 1026.8
20181015224906 47 330 4.0 0.0 0.00 0.00 0.00 46 1026.9
20181015223905 48 341 3.0 0.0 0.00 0.00 0.00 45 1026.8
20181015222901 48 334 4.0 0.0 0.00 0.00 0.00 44 1026.9
20181015221900 48 337 3.0 0.0 0.00 0.00 0.00 45 1026.8
20181015220855 48 314 2.0 0.0 0.00 0.00 0.00 45 1026.9
20181015215852 48 324 2.0 0.0 0.00 0.00 0.00 45 1026.9
20181015214848 48 332 2.0 0.0 0.00 0.00 0.00 45 1027.0
20181015213845 48 312 2.0 0.0 0.00 0.00 0.00 44 1027.1
20181015211841 48 343 1.0 0.0 0.00 0.00 0.00 44 1027.2
20181015210838 48 307 2.0 0.0 0.00 0.00 0.00 44 1027.2
20181015205835 48 341 2.0 0.0 0.00 0.00 0.00 44 1027.2
20181015204835 48 354 2.0 0.0 0.00 0.00 0.00 44 1027.2
20181015203828 48 332 2.0 0.0 0.00 0.00 0.00 43 1027.3
20181015202826 48 296 1.0 0.0 0.00 0.00 0.00 43 1027.4
20181015200820 47 326 3.0 0.0 0.00 0.00 0.00 44 1027.6
20181015195817 47 349 3.0 0.0 0.00 0.00 0.00 44 1027.7
20181015194812 47 336 2.0 0.0 0.00 0.00 0.00 42 1027.8
20181015193810 47 359 2.0 0.0 0.00 0.00 0.00 44 1027.8
20181015192808 47 4 2.0 0.0 0.00 0.00 0.00 43 1027.8
20181015191805 47 310 1.0 0.0 0.00 0.00 0.00 43 1028.0
20181015190802 46 11 2.0 0.0 0.00 0.00 0.00 45 1028.0